TimeAKDT,TemperatureF,Dew PointF,Humidity,Sea Level PressureIn,VisibilityMPH,Wind Direction,Wind SpeedMPH,Gust SpeedMPH,PrecipitationIn,Events,Conditions,WindDirDegrees,DateUTC
12:53 AM,54.0,52.0,93,29.78,10.0,Calm,Calm,-,N/A,,Overcast,0,2013-08-20 08:53:00
1:53 AM,54.0,51.1,90,29.78,10.0,Calm,Calm,-,N/A,,Overcast,0,2013-08-20 09:53:00
2:53 AM,53.1,51.1,93,29.78,10.0,Calm,Calm,-,0.01,,Overcast,0,2013-08-20 10:53:00
3:53 AM,55.0,48.9,80,29.79,10.0,SSW,12.7,21.9,N/A,,Overcast,200,2013-08-20 11:53:00
4:53 AM,57.0,48.9,74,29.80,10.0,SSW,10.4,18.4,N/A,,Overcast,210,2013-08-20 12:53:00
5:53 AM,55.0,48.9,80,29.80,10.0,SSW,12.7,20.7,N/A,,Mostly Cloudy,200,2013-08-20 13:53:00
6:53 AM,53.1,50.0,89,29.80,10.0,Calm,Calm,-,N/A,,Overcast,0,2013-08-20 14:53:00
7:53 AM,54.0,51.1,90,29.81,10.0,ESE,3.5,-,N/A,,Overcast,120,2013-08-20 15:53:00
8:53 AM,55.9,50.0,80,29.83,10.0,South,6.9,-,N/A,,Overcast,180,2013-08-20 16:53:00
9:53 AM,55.9,51.1,84,29.83,10.0,SSW,5.8,-,N/A,,Overcast,200,2013-08-20 17:53:00
10:53 AM,55.9,51.1,84,29.84,10.0,SSW,4.6,-,N/A,,Overcast,200,2013-08-20 18:53:00
11:53 AM,60.1,52.0,75,29.84,10.0,Calm,Calm,-,N/A,,Partly Cloudy,0,2013-08-20 19:53:00
12:53 PM,60.1,52.0,75,29.84,10.0,NNE,5.8,-,N/A,,Scattered Clouds,30,2013-08-20 20:53:00
1:53 PM,61.0,52.0,72,29.85,10.0,Calm,Calm,-,N/A,,Partly Cloudy,0,2013-08-20 21:53:00
2:53 PM,59.0,51.1,75,29.85,10.0,South,10.4,19.6,N/A,,Overcast,180,2013-08-20 22:53:00
3:53 PM,59.0,52.0,78,29.85,10.0,South,9.2,18.4,0.00,,Overcast,170,2013-08-20 23:53:00
4:53 PM,59.0,51.1,75,29.85,10.0,SW,6.9,-,N/A,,Overcast,220,2013-08-21 00:53:00
5:53 PM,57.9,51.1,78,29.84,10.0,South,10.4,18.4,0.00,,Overcast,180,2013-08-21 01:53:00
6:01 PM,57.2,51.8,82,29.83,10.0,South,9.2,-,N/A,,Overcast,190,2013-08-21 02:01:00
6:41 PM,57.2,51.8,82,29.85,5.0,WSW,8.1,-,0.00,Rain,Light Rain,240,2013-08-21 02:41:00
6:50 PM,57.2,53.6,88,29.84,2.5,WSW,3.5,-,0.02,Rain,Light Rain,240,2013-08-21 02:50:00
6:53 PM,57.0,54.0,89,29.85,3.0,Variable,3.5,-,0.02,Rain,Light Rain,0,2013-08-21 02:53:00
7:46 PM,57.2,50.0,77,29.84,10.0,SSW,6.9,-,0.00,,Overcast,200,2013-08-21 03:46:00
7:53 PM,59.0,50.0,72,29.84,10.0,South,8.1,-,0.00,,Overcast,190,2013-08-21 03:53:00
8:53 PM,59.0,48.0,67,29.84,10.0,South,11.5,23.0,N/A,,Overcast,180,2013-08-21 04:53:00
9:53 PM,57.9,48.0,70,29.84,10.0,South,8.1,-,N/A,,Overcast,190,2013-08-21 05:53:00
10:53 PM,59.0,46.9,64,29.85,10.0,South,6.9,-,N/A,,Overcast,180,2013-08-21 06:53:00
11:53 PM,57.9,46.9,67,29.85,10.0,South,10.4,18.4,N/A,,Overcast,190,2013-08-21 07:53:00